K9MWM-1 Weather Reports


time (UTC)temp
C
wind
direction
speed
KPH
gust
KPH
rain 1hr
cm
rain 24hr
cm
rain mn
cm
humidity
%
barometer
mb
20220124160836 -3 122 0.0 1.6 0.00 0.00 0.00
20220124155811 -5 151 0.0 3.2 0.00 0.00 0.00
20220124155258 -6 146 0.0 3.2 0.00 0.00 0.00
20220124154745 -7 109 0.0 1.6 0.00 0.00 0.00
20220124154232 -10 292 0.0 0.0 0.00 0.00 0.00
20220124153719 -12 292 0.0 0.0 0.00 0.00 0.00
20220124153207 -12 292 0.0 0.0 0.00 0.00 0.00
20220124152654 -12 292 0.0 0.0 0.00 0.00 0.00
20220124152141 -12 292 0.0 0.0 0.00 0.00 0.00
20220124151628 -12 292 0.0 0.0 0.00 0.00 0.00
20220124151115 -12 294 0.0 1.6 0.00 0.00 0.00
20220124150602 -12 315 0.0 0.0 0.00 0.00 0.00
20220124150049 -12 326 0.0 1.6 0.00 0.00 0.00
20220124145537 -12 337 1.6 3.2 0.00 0.00 0.00
20220124144511 -12 116 0.0 3.2 0.00 0.00 0.00
20220124143958 -12 115 3.2 4.8 0.00 0.00 0.00
20220124143445 -12 113 0.0 4.8 0.00 0.00 0.00
20220124142932 -12 90 0.0 0.0 0.00 0.00 0.00
20220124142420 -12 337 0.0 0.0 0.00 0.00 0.00
20220124141354 -12 337 0.0 0.0 0.00 0.00 0.00
20220124140328 -12 135 0.0 0.0 0.00 0.00 0.00
20220124135815 -12 118 0.0 0.0 0.00 0.00 0.00
20220124135306 -12 113 0.0 0.0 0.00 0.00 0.00
20220124134750 -12 0 0.0 0.0 0.00 0.00 0.00
20220124134237 -12 337 0.0 0.0 0.00 0.00 0.00
20220124133725 -12 45 0.0 0.0 0.00 0.00 0.00
20220124133211 -12 112 0.0 0.0 0.00 0.00 0.00
20220124132146 -12 157 0.0 0.0 0.00 0.00 0.00
20220124131633 -12 157 0.0 0.0 0.00 0.00 0.00
20220124131120 -12 100 0.0 0.0 0.00 0.00 0.00
20220124130609 -12 90 0.0 0.0 0.00 0.00 0.00
20220124130054 -12 90 0.0 0.0 0.00 0.00 0.00
20220124125541 -12 90 0.0 0.0 0.00 0.00 0.00
20220124125028 -12 90 0.0 0.0 0.00 0.00 0.00
20220124124516 -12 90 0.0 0.0 0.00 0.00 0.00
20220124123450 -12 22 0.0 0.0 0.00 0.00 0.00
20220124122937 -12 22 0.0 0.0 0.00 0.00 0.00
20220124122424 -12 22 0.0 0.0 0.00 0.00 0.00
20220124121359 -11 22 0.0 0.0 0.00 0.00 0.00
20220124120846 -11 337 0.0 0.0 0.00 0.00 0.00
20220124115820 -11 90 0.0 0.0 0.00 0.00 0.00
20220124115307 -11 90 0.0 0.0 0.00 0.00 0.00
20220124114243 -11 90 0.0 0.0 0.00 0.00 0.00
20220124113730 -11 90 0.0 0.0 0.00 0.00 0.00
20220124112820 -11 90 0.0 0.0 0.00 0.00 0.00
20220124112705 -11 90 0.0 0.0 0.00 0.00 0.00
20220124112152 -11 90 0.0 0.0 0.00 0.00 0.00
20220124111637 -11 90 0.0 0.0 0.00 0.00 0.00
20220124111125 -11 90 0.0 0.0 0.00 0.00 0.00
20220124110613 -11 90 0.0 1.6 0.00 0.00 0.00
20220124110059 -11 337 0.0 0.0 0.00 0.00 0.00
20220124105546 -11 337 0.0 0.0 0.00 0.00 0.00
20220124105033 -11 337 0.0 3.2 0.00 0.00 0.00
20220124104520 -11 113 0.0 0.0 0.00 0.00 0.00
20220124104007 -11 49 0.0 0.0 0.00 0.00 0.00
20220124103454 -11 45 0.0 0.0 0.00 0.00 0.00
20220124102942 -11 45 0.0 0.0 0.00 0.00 0.00
20220124102429 -11 45 0.0 0.0 0.00 0.00 0.00
20220124101403 -10 270 0.0 0.0 0.00 0.00 0.00
20220124100850 -10 337 0.0 0.0 0.00 0.00 0.00
20220124100338 -10 0 0.0 0.0 0.00 0.00 0.00
20220124095827 -10 0 0.0 0.0 0.00 0.00 0.00
20220124095312 -10 157 0.0 0.0 0.00 0.00 0.00
20220124094830 -10 0 0.0 0.0 0.00 0.00 0.00
20220124094759 -10 0 0.0 0.0 0.00 0.00 0.00
20220124094246 -10 0 0.0 0.0 0.00 0.00 0.00
20220124093733 -10 90 0.0 0.0 0.00 0.00 0.00
20220124093220 -10 337 0.0 0.0 0.00 0.00 0.00
20220124092708 -10 67 0.0 0.0 0.00 0.00 0.00
20220124092156 -10 67 0.0 0.0 0.00 0.00 0.00
20220124091642 -10 67 0.0 0.0 0.00 0.00 0.00
20220124091129 -10 67 0.0 0.0 0.00 0.00 0.00
20220124090616 -10 67 0.0 0.0 0.00 0.00 0.00
20220124090103 -10 67 0.0 0.0 0.00 0.00 0.00
20220124085551 -10 90 0.0 0.0 0.00 0.00 0.00
20220124085038 -10 90 0.0 0.0 0.00 0.00 0.00
20220124084012 -10 323 0.0 0.0 0.00 0.00 0.00
20220124082434 -10 0 0.0 0.0 0.00 0.00 0.00
20220124081409 -10 0 0.0 0.0 0.00 0.00 0.00
20220124080856 -10 0 0.0 0.0 0.00 0.00 0.00
20220124080344 -10 0 0.0 0.0 0.00 0.00 0.00
20220124075831 -10 0 0.0 0.0 0.00 0.00 0.00
20220124075319 -9 0 0.0 0.0 0.00 0.00 0.00
20220124074805 -9 0 0.0 0.0 0.00 0.00 0.00
20220124074251 -9 337 0.0 0.0 0.00 0.00 0.00
20220124073225 -9 112 0.0 0.0 0.00 0.00 0.00
20220124072712 -8 0 0.0 0.0 0.00 0.00 0.00
20220124072159 -8 1 0.0 0.0 0.00 0.00 0.00
20220124071646 -8 112 0.0 0.0 0.00 0.00 0.00
20220124071134 -8 90 0.0 0.0 0.00 0.00 0.00
20220124070108 -8 0 0.0 0.0 0.00 0.00 0.00
20220124065555 -8 332 0.0 0.0 0.00 0.00 0.00
20220124064529 -8 337 0.0 0.0 0.00 0.00 0.00
20220124064016 -8 0 0.0 0.0 0.00 0.00 0.00
20220124063504 -8 337 0.0 0.0 0.00 0.00 0.00
20220124062952 -8 90 0.0 0.0 0.00 0.00 0.00
20220124061925 -8 90 0.0 0.0 0.00 0.00 0.00
20220124061412 -8 90 0.0 0.0 0.00 0.00 0.00
20220124060900 -8 90 0.0 0.0 0.00 0.00 0.00
20220124060347 -7 90 0.0 0.0 0.00 0.00 0.00
20220124055834 -7 90 0.0 0.0 0.00 0.00 0.00
20220124055323 -7 90 0.0 0.0 0.00 0.00 0.00
20220124054810 -7 90 0.0 0.0 0.00 0.00 0.00
20220124053744 -7 90 0.0 0.0 0.00 0.00 0.00
20220124053231 -7 90 0.0 0.0 0.00 0.00 0.00
20220124052718 -7 90 0.0 0.0 0.00 0.00 0.00
20220124051653 -7 90 0.0 0.0 0.00 0.00 0.00
20220124051140 -6 90 0.0 0.0 0.00 0.00 0.00
20220124050627 -6 90 0.0 0.0 0.00 0.00 0.00
20220124050114 -6 90 0.0 0.0 0.00 0.00 0.00
20220124045601 -6 90 0.0 0.0 0.00 0.00 0.00
20220124045048 -6 337 0.0 0.0 0.00 0.00 0.00
20220124044537 -6 315 0.0 0.0 0.00 0.00 0.00
20220124044022 -6 90 0.0 0.0 0.00 0.00 0.00
20220124043510 -6 102 0.0 0.0 0.00 0.00 0.00
20220124042957 -6 114 0.0 0.0 0.00 0.00 0.00
20220124042444 -6 45 0.0 0.0 0.00 0.00 0.00
20220124041418 -6 45 0.0 0.0 0.00 0.00 0.00
20220124040905 -6 337 0.0 0.0 0.00 0.00 0.00
20220124040352 -5 337 0.0 0.0 0.00 0.00 0.00
20220124035839 -5 337 0.0 0.0 0.00 0.00 0.00
20220124035327 -5 74 0.0 1.6 0.00 0.00 0.00
20220124034815 -5 95 0.0 0.0 0.00 0.00 0.00
20220124034301 -5 71 0.0 0.0 0.00 0.00 0.00
20220124033748 -5 337 0.0 0.0 0.00 0.00 0.00
20220124033235 -5 337 0.0 0.0 0.00 0.00 0.00
20220124032723 -5 0 0.0 0.0 0.00 0.00 0.00
20220124032210 -5 337 0.0 0.0 0.00 0.00 0.00
20220124031656 -5 337 0.0 0.0 0.00 0.00 0.00
20220124030118 -5 0 0.0 0.0 0.00 0.00 0.00
20220124024541 -5 112 0.0 0.0 0.00 0.00 0.00
20220124024028 -4 337 0.0 0.0 0.00 0.00 0.00
20220124023001 -4 315 0.0 0.0 0.00 0.00 0.00
20220124022448 -4 315 0.0 0.0 0.00 0.00 0.00
20220124021936 -4 315 0.0 0.0 0.00 0.00 0.00
20220124021423 -3 337 0.0 0.0 0.00 0.00 0.00
20220124020910 -3 45 0.0 0.0 0.00 0.00 0.00
20220124020357 -3 337 0.0 0.0 0.00 0.00 0.00
20220124015332 -3 24 0.0 0.0 0.00 0.00 0.00
20220124014819 -3 90 0.0 0.0 0.00 0.00 0.00
20220124014306 -3 90 0.0 0.0 0.00 0.00 0.00
20220124013754 -2 90 0.0 0.0 0.00 0.00 0.00
20220124012727 -2 112 0.0 0.0 0.00 0.00 0.00
20220124012215 -2 183 0.0 3.2 0.00 0.00 0.00
20220124011702 -1 270 0.0 1.6 0.00 0.00 0.00
20220124011149 -1 337 0.0 3.2 0.00 0.00 0.00
20220124005058 -1 337 0.0 1.6 0.00 0.00 0.00
20220124004545 -1 118 0.0 0.0 0.00 0.00 0.00
20220124004033 0 337 0.0 1.6 0.00 0.00 0.00
20220124003520 0 202 0.0 3.2 0.00 0.00 0.00
20220124003006 0 135 1.6 6.4 0.00 0.00 0.00
20220124002453 0 88 0.0 0.0 0.00 0.00 0.00
20220124001940 0 335 0.0 1.6 0.00 0.00 0.00
20220124001428 0 213 0.0 3.2 0.00 0.00 0.00
20220124000402 1 142 0.0 0.0 0.00 0.00 0.00
20220123235849 1 0 0.0 3.2 0.00 0.00 0.00
20220123235336 2 61 0.0 3.2 0.00 0.00 0.00
20220123234824 2 3 1.6 3.2 0.00 0.00 0.00
20220123234311 4 16 0.0 3.2 0.00 0.00 0.00
20220123233757 5 13 1.6 4.8 0.00 0.00 0.00
20220123233245 7 336 0.0 3.2 0.00 0.00 0.00
20220123232731 8 353 0.0 3.2 0.00 0.00 0.00
20220123232218 9 295 0.0 6.4 0.00 0.00 0.00
20220123231705 9 338 0.0 4.8 0.00 0.00 0.00
20220123230639 9 332 0.0 1.6 0.00 0.00 0.00
20220123225614 9 324 3.2 4.8 0.00 0.00 0.00
20220123225101 9 9 1.6 4.8 0.00 0.00 0.00
20220123224548 9 343 1.6 3.2 0.00 0.00 0.00
20220123223522 9 307 1.6 4.8 0.00 0.00 0.00
20220123223009 10 300 0.0 6.4 0.00 0.00 0.00
20220123222457 10 293 0.0 3.2 0.00 0.00 0.00
20220123221944 10 340 0.0 4.8 0.00 0.00 0.00
20220123221432 10 318 0.0 4.8 0.00 0.00 0.00
20220123220919 10 315 0.0 4.8 0.00 0.00 0.00
20220123220406 10 325 1.6 3.2 0.00 0.00 0.00
20220123215854 10 306 3.2 4.8 0.00 0.00 0.00
20220123215341 9 310 0.0 1.6 0.00 0.00 0.00
20220123214315 9 271 0.0 3.2 0.00 0.00 0.00
20220123213802 9 282 0.0 3.2 0.00 0.00 0.00
20220123212737 9 302 1.6 4.8 0.00 0.00 0.00
20220123212223 9 303 1.6 3.2 0.00 0.00 0.00
20220123211157 8 285 0.0 4.8 0.00 0.00 0.00
20220123210132 8 244 1.6 4.8 0.00 0.00 0.00
20220123205619 8 283 3.2 6.4 0.00 0.00 0.00
20220123205106 8 283 1.6 4.8 0.00 0.00 0.00
20220123204554 8 273 3.2 4.8 0.00 0.00 0.00
20220123204040 8 270 3.2 6.4 0.00 0.00 0.00
20220123203528 8 301 0.0 6.4 0.00 0.00 0.00
20220123203015 8 287 0.0 4.8 0.00 0.00 0.00
20220123202504 7 151 0.0 6.4 0.00 0.00 0.00
20220123201437 6 163 0.0 3.2 0.00 0.00 0.00
20220123195345 6 124 8.0 11.3 0.00 0.00 0.00
20220123194833 6 139 8.0 16.1 0.00 0.00 0.00
20220123194319 6 127 1.6 9.7 0.00 0.00 0.00
20220123193807 6 180 3.2 9.7 0.00 0.00 0.00
20220123192228 6 258 0.0 6.4 0.00 0.00 0.00
20220123191715 6 129 0.0 14.5 0.00 0.00 0.00
20220123191202 6 247 3.2 4.8 0.00 0.00 0.00
20220123190649 5 138 1.6 6.4 0.00 0.00 0.00
20220123190136 5 138 3.2 8.0 0.00 0.00 0.00
20220123185624 5 151 3.2 9.7 0.00 0.00 0.00
20220123184559 6 14 1.6 9.7 0.00 0.00 0.00
20220123184045 5 354 0.0 3.2 0.00 0.00 0.00
20220123183532 5 67 0.0 6.4 0.00 0.00 0.00
20220123183019 5 198 1.6 6.4 0.00 0.00 0.00
20220123182507 4 227 1.6 4.8 0.00 0.00 0.00
20220123181441 4 297 0.0 4.8 0.00 0.00 0.00
20220123180928 3 266 1.6 4.8 0.00 0.00 0.00
20220123180417 3 201 1.6 8.0 0.00 0.00 0.00
20220123175902 2 241 1.6 6.4 0.00 0.00 0.00
20220123175350 2 170 1.6 8.0 0.00 0.00 0.00
20220123174837 2 153 3.2 8.0 0.00 0.00 0.00
20220123173259 1 167 3.2 4.8 0.00 0.00 0.00
20220123172746 1 139 1.6 8.0 0.00 0.00 0.00
20220123172233 1 150 3.2 6.4 0.00 0.00 0.00
20220123171720 0 150 3.2 6.4 0.00 0.00 0.00
20220123170654 0 138 4.8 8.0 0.00 0.00 0.00
20220123170142 0 152 1.6 9.7 0.00 0.00 0.00
20220123165116 0 137 1.6 8.0 0.00 0.00 0.00
20220123164603 0 140 3.2 6.4 0.00 0.00 0.00
20220123162512 0 142 4.8 8.0 0.00 0.00 0.00
20220123161446 0 153 3.2 4.8 0.00 0.00 0.00